Temperature
5 5 5 5 5 4 4 6 7 8 7 8 8 8 7 6 5 5 5 4 4 4 3 3 3 3 3 3 2 2 3 3 3 3 3 3 2 2 2 2 2 2 1 1
4 4 4 4 5 5 5 5 6 6 6 8 7 6 6 5 5 4 4 4 4 3 3 3 3 3 2 2 2 2 2 2 2 2 2 2 2 2 2 2 2 1 1 1
5 3 3 5 5 4 4 5 5 6 7 7 6 6 5 5 4 4 4 4 3 3 3 3 3 2 2 2 2 2 2 2 2 2 2 2 2 2 2 1 1 1 1 0
4 3 4 7 5 5 5 5 5 5 6 6 5 5 4 4 4 4 3 3 3 3 3 3 2 2 2 2 1 1 1 1 2 2 2 2 1 1 1 1 1 0 0 0
3 4 6 6 4 4 4 5 5 4 5 4 3 3 4 4 4 3 3 3 3 3 3 2 2 2 1 1 1 1 1 1 1 1 1 1 1 1 1 0 0 -0 -0 -0
3 4 5 6 4 3 4 5 5 4 4 3 3 4 6 3 3 3 3 3 3 2 2 2 1 1 1 1 1 1 1 1 1 1 1 1 1 0 0 -0 -0 -0 -1 -1
3 4 5 5 2 3 5 6 4 3 3 3 3 4 3 3 3 2 2 2 2 2 2 1 1 1 1 1 1 0 0 0 0 0 0 0 0 -0 -0 -1 -1 -1 -1 -1
2 3 5 3 2 4 5 4 3 3 3 2 2 2 2 2 2 2 2 2 1 1 1 1 1 0 0 0 0 0 -0 -0 -0 -0 -0 -0 -0 -1 -1 -1 -1 -1 -1 -2
3 5 4 3 3 4 3 3 3 3 3 2 2 2 2 2 1 1 1 1 1 1 0 0 0 0 -0 -0 -0 -0 -0 -0 -1 -1 -1 -1 -1 -1 -1 -1 -2 -2 -2 -2
2 3 3 2 2 3 3 3 3 3 2 2 2 1 1 1 1 1 1 1 0 0 -0 -0 -0 -0 -0 -0 -1 -1 -1 -1 -1 -1 -1 -1 -1 -1 -1 -2 -2 -2 -2 -2
1 2 2 2 2 3 3 3 3 2 2 2 2 1 1 1 1 0 0 0 -0 -0 -0 -0 -0 -1 -1 -1 -1 -1 -1 -1 -1 -1 -1 -1 -2 -2 -2 -2 -2 -2 -3 -3
3 3 3 3 3 3 2 2 2 2 2 1 1 1 0 0 0 0 0 -0 -1 -1 -1 -1 -1 -1 -1 -1 -1 -1 -1 -1 -1 -2 -2 -2 -2 -2 -2 -2 -2 -2 -2 -3
2 2 2 2 2 2 2 2 1 1 1 1 1 1 0 0 0 -0 -0 -0 -1 -1 -1 -1 -1 -1 -1 -1 -2 -2 -2 -2 -2 -2 -2 -2 -2 -2 -2 -2 -2 -2 -2 -3
1 1 0 1 1 1 1 1 1 1 1 1 1 0 0 0 -0 -0 -1 -1 -1 -1 -1 -1 -1 -1 -1 -2 -2 -2 -2 -2 -2 -2 -2 -2 -2 -2 -3 -3 -3 -3 -3 -3
1 1 0 0 1 1 1 0 0 0 0 0 -0 -0 -0 -0 -1 -1 -1 -1 -1 -1 -1 -2 -2 -2 -2 -2 -2 -2 -2 -2 -2 -2 -2 -3 -3 -3 -3 -3 -3 -3 -3 -3
-0 -0 -0 -0 -0 0 -0 -0 -0 -0 -0 -0 -0 -1 -1 -1 -1 -1 -1 -1 -2 -2 -2 -2 -2 -2 -2 -2 -2 -2 -2 -2 -2 -2 -3 -3 -3 -3 -3 -3 -3 -3 -4 -3
-1 -1 -1 -1 -1 -1 -0 -0 -0 -1 -1 -1 -1 -1 -1 -1 -1 -2 -2 -2 -2 -2 -2 -2 -2 -2 -2 -2 -2 -2 -2 -2 -2 -2 -3 -3 -3 -3 -3 -4 -4 -4 -4 -4
-1 -1 -1 -1 -1 -1 -1 -1 -1 -1 -1 -1 -1 -1 -2 -2 -2 -2 -2 -2 -2 -2 -2 -2 -2 -2 -2 -2 -2 -2 -2 -2 -2 -3 -3 -3 -3 -3 -4 -4 -4 -4 -4 -4
-1 -1 -1 -1 -1 -1 -1 -1 -1 -1 -1 -2 -1 -2 -2 -2 -2 -2 -2 -2 -2 -2 -2 -2 -2 -2 -2 -2 -3 -3 -3 -3 -3 -3 -3 -3 -4 -4 -4 -4 -4 -4 -4 -4
-1 -1 -1 -1 -1 -1 -1 -2 -2 -2 -2 -2 -2 -2 -2 -2 -2 -2 -2 -2 -2 -2 -2 -2 -2 -2 -3 -3 -3 -3 -3 -3 -3 -3 -4 -4 -4 -4 -4 -4 -4 -4 -4 -4
-2 -2 -1 -1 -2 -2 -2 -2 -2 -2 -2 -2 -2 -2 -3 -3 -3 -3 -3 -3 -3 -3 -3 -3 -3 -3 -3 -3 -3 -3 -3 -4 -4 -4 -4 -4 -4 -4 -4 -4 -4 -4 -5 -5
-2 -2 -2 -2 -2 -2 -2 -2 -2 -2 -2 -2 -2 -3 -3 -3 -3 -3 -3 -3 -3 -3 -3 -3 -3 -3 -3 -4 -4 -4 -4 -4 -4 -4 -4 -4 -4 -4 -5 -5 -5 -5 -5 -5
-2 -2 -2 -3 -3 -3 -3 -3 -3 -3 -3 -3 -3 -3 -3 -3 -3 -3 -4 -4 -4 -4 -4 -4 -4 -4 -4 -4 -4 -4 -4 -4 -4 -4 -4 -5 -5 -5 -5 -5 -5 -5 -5 -5
-3 -3 -3 -3 -3 -3 -3 -3 -3 -3 -3 -3 -3 -3 -3 -4 -4 -4 -4 -4 -4 -4 -4 -4 -4 -4 -4 -4 -4 -4 -4 -4 -5 -5 -5 -5 -5 -5 -5 -5 -5 -5 -5 -5
-3 -3 -3 -3 -3 -4 -4 -4 -4 -4 -3 -4 -4 -4 -4 -4 -4 -4 -4 -4 -4 -4 -4 -4 -5 -5 -5 -5 -5 -5 -5 -5 -5 -5 -5 -5 -5 -5 -5 -5 -5 -6 -6 -6
-4 -4 -4 -4 -4 -4 -4 -4 -4 -4 -4 -4 -4 -4 -4 -5 -5 -5 -5 -5 -5 -5 -5 -5 -5 -5 -5 -5 -5 -5 -5 -5 -5 -5 -5 -5 -6 -5 -6 -6 -6 -6 -6 -6
-4 -4 -4 -4 -4 -4 -4 -4 -4 -4 -4 -4 -5 -5 -5 -5 -5 -5 -5 -5 -5 -5 -5 -6 -6 -6 -6 -6 -6 -6 -6 -6 -6 -6 -6 -6 -6 -6 -6 -6 -6 -6 -6 -6
Wind_Speed
9 8 6 9 12 14 15 14 13 14 15 16 13 11 10 9 9 8 8 7 7 6 5 5 5 5 4 4 3 4 4 5 5 5 5 5 6 6 6 6 7 7 7 7
7 7 8 10 14 16 17 17 18 18 20 15 13 11 11 10 9 9 9 8 7 7 6 6 6 5 5 4 4 4 5 5 5 5 5 5 6 6 6 6 6 6 7 7
7 6 6 12 14 16 13 14 14 18 16 10 10 11 11 10 10 10 9 8 8 8 7 7 6 5 5 4 4 4 5 5 4 5 5 6 6 6 6 6 6 7 7 7
4 4 11 7 3 10 13 14 15 14 13 11 11 10 9 9 10 9 8 8 8 7 7 6 5 5 4 4 4 4 5 5 5 5 5 5 6 6 6 6 6 6 7 7
5 8 11 8 5 6 9 10 11 14 13 10 7 6 8 7 7 7 7 7 7 6 6 5 5 4 4 4 4 4 5 5 5 5 6 6 6 6 6 6 6 6 6 7
5 7 8 4 1 2 4 8 6 8 10 7 3 5 5 2 4 6 6 5 5 4 4 4 4 4 4 4 4 5 5 5 5 5 6 6 6 6 5 5 6 5 6 6
9 9 9 2 3 5 6 4 1 5 6 6 6 6 4 3 4 5 5 4 4 4 4 4 3 4 5 5 5 5 4 4 5 5 6 6 5 5 5 5 5 5 5 5
7 9 8 5 6 7 5 2 2 3 5 6 6 6 5 5 5 4 4 3 3 3 3 3 3 4 5 5 5 4 4 4 5 5 4 4 4 4 4 5 5 5 5 4
9 9 4 7 8 7 5 5 4 4 5 5 6 6 6 6 6 5 4 3 3 3 3 3 4 4 5 5 4 4 4 4 4 4 4 4 4 4 4 4 4 4 4 4
9 12 10 10 10 9 8 8 7 7 6 6 7 7 7 6 6 5 4 3 3 3 4 4 4 4 5 4 4 4 5 4 4 4 3 3 3 3 4 4 4 4 4 4
11 11 9 11 11 11 10 9 8 8 8 7 7 7 7 7 6 5 4 3 3 4 4 4 4 4 4 4 4 5 5 4 4 4 4 3 3 4 4 4 4 5 4 4
11 10 8 9 8 8 9 10 10 9 8 7 7 8 7 7 6 4 4 3 3 4 4 4 4 4 4 4 4 4 4 4 3 3 3 3 3 3 3 4 4 5 6 5
12 10 10 11 10 9 9 9 9 9 9 8 7 7 7 6 5 4 4 4 5 5 5 4 4 4 4 4 4 5 5 4 3 3 3 3 3 3 2 2 3 4 4 5
12 9 10 10 11 9 9 8 7 7 7 6 6 5 5 5 4 5 5 5 4 4 4 4 4 5 4 4 4 5 4 4 4 3 3 3 3 3 3 3 2 2 3 4
10 10 11 10 9 8 6 5 6 6 6 5 5 5 5 5 5 5 4 3 3 4 4 4 4 5 3 3 4 4 4 3 3 3 3 3 3 3 3 3 2 2 2 1
8 8 8 9 10 9 7 6 7 7 6 5 5 5 5 5 4 3 3 3 4 4 4 4 5 4 3 3 3 3 3 4 3 3 3 3 3 3 3 3 3 3 2 2
7 8 7 8 8 8 7 7 7 6 5 5 5 4 3 3 3 3 3 4 4 4 4 4 4 3 3 3 3 3 3 3 3 3 3 3 3 3 3 3 3 3 2 2
9 9 9 9 8 7 6 6 6 6 6 5 4 4 4 4 4 4 3 2 2 3 3 3 3 2 3 3 3 2 2 3 3 2 2 2 3 3 3 3 3 3 2 2
5 5 5 6 6 6 6 5 5 5 4 4 4 5 4 4 4 3 2 2 3 3 3 2 3 2 3 3 3 2 2 2 2 2 2 2 2 2 3 3 3 2 2 2
2 2 2 2 3 4 4 4 4 3 4 4 4 4 3 3 3 2 2 2 3 2 2 2 2 2 2 2 2 2 2 2 2 2 2 2 2 2 2 2 2 2 2 2
2 1 0 0 1 2 3 3 3 3 3 4 4 4 3 2 2 2 2 2 2 2 2 2 1 1 1 2 2 2 2 2 2 2 2 2 2 2 2 2 2 2 2 2
1 0 0 1 2 1 1 2 2 3 3 3 3 3 2 2 1 1 2 2 2 2 1 1 1 2 1 2 2 2 2 2 2 2 2 2 2 2 2 2 2 2 2 2
0 1 1 2 2 2 2 2 2 2 2 2 2 2 2 2 1 1 1 1 1 2 1 1 1 1 1 1 1 2 2 2 2 2 2 2 2 2 2 1 1 1 1 1
1 2 2 3 3 3 2 2 2 2 2 1 1 1 1 1 1 1 1 1 2 2 1 1 1 1 1 1 1 1 1 1 1 1 1 1 1 1 1 1 1 1 1 1
2 2 3 3 3 2 2 2 2 2 2 1 1 1 0 1 1 1 1 1 1 1 1 1 1 0 0 0 1 1 1 1 1 1 1 1 1 1 1 1 1 1 1 1
1 2 1 1 1 1 1 1 1 1 1 1 1 1 1 1 0 0 0 1 1 1 1 1 0 0 0 0 0 0 0 0 0 1 1 1 1 1 1 1 1 1 1 1
2 2 2 1 1 1 1 1 1 1 1 1 0 0 1 1 1 1 1 1 1 1 1 1 1 1 0 0 0 0 0 0 0 0 1 1 1 1 1 1 1 1 1 1
Wind_Direction
264 263 235 237 228 214 218 230 241 255 259 264 265 268 270 270 269 266 265 264 259 258 259 256 254 255 253 248 240 232 229 232 238 238 236 238 239 240 239 236 234 232 232 232
264 253 245 254 243 232 234 239 247 260 266 267 271 272 268 264 260 260 262 262 260 260 257 252 249 247 241 236 237 234 233 239 243 241 236 237 240 241 239 237 235 233 233 232
258 266 271 256 236 224 228 230 232 245 256 264 265 265 263 263 258 258 262 265 261 256 252 250 245 239 235 233 234 235 239 243 241 239 237 237 239 238 237 235 234 233 235 235
251 246 245 253 218 215 228 240 233 245 257 260 266 275 272 260 254 259 260 262 260 256 253 249 240 234 234 229 230 234 241 245 242 240 242 241 239 239 238 235 233 234 236 237
221 245 264 266 234 209 219 251 236 242 254 264 278 284 266 248 247 252 258 261 260 253 246 240 233 226 220 224 230 236 243 248 247 241 243 242 242 243 239 234 233 233 235 238
218 237 249 256 172 191 203 256 238 232 243 244 228 259 274 249 251 257 264 262 255 248 239 232 228 217 213 222 229 239 248 254 255 247 242 240 242 243 240 236 236 236 236 237
229 242 258 238 141 157 212 261 211 219 227 216 227 256 291 284 268 262 262 257 247 236 227 226 217 212 219 225 235 244 251 255 254 249 245 242 242 239 237 235 236 236 237 239
214 230 246 166 162 204 248 306 240 238 230 230 249 268 275 273 274 273 265 252 238 228 230 227 216 215 226 236 243 244 244 247 249 247 244 237 234 237 235 231 233 237 238 244
215 235 273 198 221 242 264 265 261 257 249 244 260 267 267 270 273 276 262 249 239 229 233 232 224 222 234 246 245 239 239 243 248 247 243 234 226 229 231 229 231 234 233 239
246 255 256 246 249 253 252 257 264 260 256 249 256 262 265 268 271 270 259 248 234 226 232 239 232 233 240 249 243 237 240 243 244 238 238 233 227 224 225 227 231 231 235 238
249 262 270 256 247 252 257 257 257 256 255 249 247 255 258 262 267 261 251 246 229 227 235 244 244 245 244 240 233 239 242 240 239 235 235 234 231 229 231 231 235 234 236 236
247 248 246 257 251 250 249 251 250 252 257 253 240 246 253 258 259 251 246 240 235 239 242 248 249 251 251 240 231 233 241 238 235 230 233 235 237 246 243 245 250 250 250 251
253 262 262 266 267 261 257 257 255 249 247 250 245 239 242 248 251 246 241 233 233 238 242 246 247 251 252 243 235 232 238 235 230 226 226 229 230 232 246 260 246 250 256 255
251 256 262 260 261 263 259 260 258 252 249 244 242 236 226 232 238 234 233 234 235 238 242 243 246 252 252 242 237 239 244 233 225 226 224 225 225 225 229 237 251 261 263 260
252 249 250 259 264 262 256 254 248 246 242 242 232 224 218 222 232 236 236 231 229 236 243 244 249 257 255 239 236 238 239 228 222 223 219 220 222 222 225 231 238 250 262 251
267 260 248 246 250 253 248 240 239 240 235 234 229 223 220 221 230 235 226 213 216 234 242 245 252 260 250 234 233 237 239 231 224 221 216 212 212 213 219 226 231 229 229 236
255 255 249 246 247 248 241 236 232 231 227 224 222 212 202 202 217 229 227 222 228 242 247 246 256 260 239 228 225 231 236 224 215 216 215 213 210 209 214 221 222 221 228 225
246 250 249 244 246 250 247 237 226 221 217 214 199 185 190 198 214 229 232 227 240 259 262 258 260 255 238 228 224 228 223 216 209 213 211 207 207 205 206 211 215 218 225 214
259 256 256 247 238 234 234 229 219 213 205 190 184 192 203 210 217 222 216 215 227 253 274 269 262 247 240 230 220 217 213 207 203 206 207 207 207 207 205 204 206 210 212 210
283 274 260 250 225 210 211 206 195 190 183 175 175 185 201 212 208 204 203 225 241 261 276 267 252 242 234 223 216 212 209 205 203 204 204 205 207 207 207 206 208 206 210 214
294 300 270 180 168 179 183 181 178 179 177 173 180 192 202 207 194 187 194 249 276 276 271 258 249 251 231 216 206 208 208 208 206 206 206 205 207 210 208 204 203 205 210 215
287 198 126 133 130 119 111 132 147 153 155 160 167 168 167 180 185 202 228 251 284 297 286 257 255 260 233 205 203 203 207 211 210 209 209 206 205 210 213 207 201 202 210 218
85 114 116 122 124 110 90 98 122 135 144 154 164 171 181 199 207 214 267 290 296 303 293 267 274 259 207 193 202 203 208 209 211 210 211 211 212 214 214 212 209 202 205 215
100 100 104 108 111 110 100 86 93 105 115 117 145 172 178 192 265 262 267 300 308 300 289 298 295 242 192 191 196 207 215 216 217 210 200 199 203 206 208 205 204 203 204 209
119 115 117 121 121 121 117 105 94 95 94 81 57 38 346 246 242 286 307 306 312 323 328 332 334 344 155 186 186 208 225 221 204 187 182 190 200 208 211 205 203 205 203 211
128 126 124 132 140 141 144 140 132 124 114 88 37 28 30 36 83 23 12 347 342 355 -0 358 6 33 1 30 103 271 269 232 191 160 170 184 193 204 213 216 220 218 214 212
108 113 115 102 92 136 155 160 161 178 184 177 305 3 35 42 52 47 37 26 32 27 19 18 19 5 8 36 51 47 50 56 148 153 156 164 177 194 203 216 237 237 226 216
Height
1458 1457 1458 1458 1458 1461 1461 1454 1451 1441 1442 1437 1439 1441 1441 1442 1442 1442 1442 1441 1440 1440 1439 1439 1438 1438 1437 1437 1437 1437 1436 1436 1436 1437 1436 1436 1436 1436 1436 1436 1436 1436 1436 1436
1459 1457 1457 1456 1452 1453 1453 1451 1448 1444 1439 1435 1437 1438 1438 1438 1438 1438 1437 1436 1436 1435 1435 1435 1434 1434 1433 1433 1433 1433 1432 1432 1432 1432 1432 1432 1432 1431 1431 1431 1431 1431 1431 1431
1451 1456 1455 1445 1439 1442 1444 1441 1441 1437 1431 1432 1433 1433 1433 1433 1433 1433 1432 1432 1431 1431 1431 1430 1430 1429 1429 1429 1429 1429 1428 1428 1428 1428 1428 1428 1427 1427 1426 1426 1426 1426 1426 1426
1453 1455 1448 1427 1432 1433 1434 1433 1434 1431 1429 1429 1430 1429 1429 1429 1429 1428 1427 1427 1427 1427 1426 1426 1426 1425 1425 1425 1425 1425 1424 1424 1424 1424 1424 1423 1423 1422 1421 1421 1421 1421 1422 1422
1451 1443 1430 1427 1430 1431 1432 1427 1426 1426 1425 1427 1427 1427 1424 1424 1424 1424 1423 1423 1423 1422 1422 1422 1422 1421 1421 1421 1421 1421 1420 1420 1420 1420 1419 1419 1418 1418 1417 1417 1417 1417 1417 1417
1448 1440 1428 1420 1427 1428 1430 1424 1420 1421 1422 1423 1425 1423 1419 1420 1420 1420 1419 1419 1419 1418 1418 1418 1418 1418 1417 1417 1417 1417 1416 1416 1416 1415 1415 1415 1414 1414 1413 1413 1413 1413 1413 1413
1442 1435 1421 1423 1427 1429 1426 1416 1417 1417 1418 1420 1420 1419 1418 1417 1416 1416 1415 1415 1415 1414 1414 1414 1414 1414 1414 1413 1413 1413 1413 1412 1412 1412 1411 1411 1410 1410 1410 1410 1409 1409 1409 1409
1436 1432 1421 1421 1424 1423 1415 1415 1415 1415 1415 1416 1416 1415 1415 1414 1413 1412 1412 1411 1411 1411 1411 1411 1410 1410 1410 1410 1410 1410 1409 1408 1408 1408 1408 1407 1407 1407 1407 1406 1406 1406 1405 1405
1424 1418 1414 1415 1414 1413 1413 1413 1412 1412 1412 1413 1412 1412 1411 1411 1410 1409 1409 1408 1408 1407 1407 1407 1407 1407 1406 1406 1406 1406 1405 1405 1405 1404 1404 1403 1403 1403 1403 1403 1402 1402 1402 1401
1420 1412 1411 1411 1410 1410 1410 1410 1409 1409 1409 1409 1408 1408 1408 1407 1406 1406 1405 1404 1404 1404 1403 1403 1403 1403 1403 1403 1403 1402 1401 1401 1401 1400 1400 1400 1400 1400 1399 1399 1399 1398 1398 1398
1413 1408 1408 1405 1405 1406 1406 1405 1405 1405 1405 1405 1404 1404 1404 1403 1402 1402 1401 1401 1401 1400 1399 1399 1400 1399 1399 1399 1399 1398 1398 1397 1397 1397 1397 1396 1396 1396 1396 1396 1395 1395 1395 1395
1402 1401 1402 1399 1400 1401 1401 1400 1401 1400 1400 1400 1400 1399 1399 1399 1398 1398 1398 1398 1397 1397 1396 1396 1396 1396 1396 1396 1395 1395 1394 1393 1393 1393 1393 1393 1393 1393 1392 1393 1392 1392 1392 1392
1397 1396 1396 1395 1395 1396 1396 1395 1395 1395 1395 1395 1395 1395 1395 1395 1394 1394 1394 1394 1394 1394 1393 1393 1392 1392 1392 1392 1392 1391 1390 1390 1389 1389 1389 1389 1389 1389 1389 1389 1389 1389 1389 1388
1392 1392 1391 1390 1390 1390 1390 1390 1390 1390 1390 1390 1390 1391 1391 1391 1391 1391 1391 1391 1391 1391 1390 1390 1389 1389 1389 1388 1388 1387 1387 1387 1386 1386 1386 1386 1386 1386 1386 1385 1385 1385 1386 1386
1386 1386 1385 1384 1384 1385 1385 1385 1385 1385 1385 1385 1386 1386 1386 1387 1387 1387 1387 1387 1387 1387 1386 1386 1386 1385 1385 1385 1384 1384 1383 1383 1383 1383 1383 1383 1383 1383 1383 1383 1383 1383 1383 1383
1380 1380 1380 1379 1379 1379 1380 1381 1380 1380 1380 1381 1382 1382 1383 1383 1383 1383 1384 1384 1383 1383 1383 1383 1382 1382 1382 1381 1381 1380 1380 1380 1380 1380 1379 1379 1379 1379 1380 1380 1380 1380 1380 1380
1375 1374 1374 1374 1374 1375 1375 1376 1376 1376 1376 1377 1378 1379 1379 1380 1380 1380 1380 1380 1380 1380 1380 1380 1380 1379 1379 1379 1378 1377 1377 1377 1377 1376 1376 1376 1376 1376 1377 1377 1377 1377 1378 1378
1370 1369 1369 1369 1370 1370 1371 1372 1372 1372 1373 1374 1375 1376 1376 1376 1376 1377 1377 1377 1377 1377 1377 1377 1377 1376 1376 1376 1375 1375 1374 1374 1374 1373 1373 1373 1373 1373 1374 1374 1374 1375 1375 1376
1366 1365 1365 1365 1366 1366 1367 1368 1368 1369 1370 1371 1372 1373 1373 1374 1374 1374 1374 1374 1374 1374 1374 1374 1374 1373 1373 1373 1372 1372 1371 1371 1371 1371 1370 1370 1370 1371 1371 1371 1372 1372 1372 1373
1362 1362 1362 1362 1362 1363 1364 1364 1365 1366 1368 1369 1370 1370 1371 1371 1371 1371 1371 1371 1371 1371 1371 1371 1371 1370 1370 1370 1369 1369 1369 1369 1368 1368 1368 1368 1368 1368 1368 1369 1369 1369 1369 1370
1360 1360 1360 1360 1360 1361 1362 1363 1364 1365 1366 1367 1368 1368 1369 1369 1369 1369 1369 1369 1369 1369 1369 1368 1368 1368 1367 1367 1367 1366 1366 1366 1366 1365 1365 1365 1365 1365 1366 1366 1366 1366 1367 1367
1358 1358 1358 1359 1359 1360 1361 1362 1363 1364 1365 1365 1366 1366 1367 1367 1367 1367 1367 1367 1367 1367 1366 1366 1366 1365 1365 1365 1364 1364 1363 1363 1363 1363 1363 1363 1363 1363 1363 1363 1363 1364 1364 1365
1357 1357 1358 1358 1359 1359 1360 1362 1363 1363 1364 1364 1364 1365 1365 1365 1365 1365 1364 1365 1364 1364 1364 1363 1363 1363 1363 1362 1362 1361 1361 1361 1360 1360 1360 1361 1361 1361 1361 1361 1361 1361 1362 1362
1357 1357 1358 1358 1359 1359 1360 1361 1362 1363 1363 1363 1364 1364 1363 1363 1363 1363 1363 1362 1362 1362 1361 1361 1361 1361 1360 1360 1359 1359 1359 1359 1358 1358 1358 1359 1359 1359 1359 1359 1359 1359 1359 1360
1356 1357 1358 1358 1359 1360 1360 1361 1361 1362 1362 1362 1362 1362 1362 1362 1362 1361 1361 1361 1360 1360 1359 1359 1359 1358 1358 1358 1357 1357 1357 1357 1357 1356 1356 1356 1356 1356 1357 1357 1357 1357 1357 1357
1356 1357 1358 1359 1359 1360 1360 1360 1361 1361 1361 1361 1361 1361 1361 1361 1360 1360 1360 1359 1359 1358 1358 1357 1357 1357 1356 1356 1355 1355 1355 1355 1355 1355 1354 1354 1354 1354 1354 1354 1354 1355 1355 1355
1356 1357 1358 1358 1359 1359 1360 1360 1360 1361 1361 1361 1360 1360 1360 1359 1359 1359 1358 1358 1357 1357 1356 1356 1356 1355 1355 1354 1354 1353 1353 1353 1353 1353 1353 1353 1352 1352 1352 1352 1353 1353 1353 1354